Home   Weather   Ontario   Past weeks
Flag for USA

Past Weather in Ontario, Oregon, USA — Yesterday and Last 2 Weeks

Now
63 °F

Sunny.


Feels Like: 63 °F
Forecast: 65 / 32 °F
Wind: 5 mph from Northwest

Location: Ontario Municipal Airport

Current Time: Mar 18, 2019 at 7:51:24 pm

Latest Report: Mar 18, 2019 at 6:53 pm


Visibility: 10 mi

Pressure: 30.21 "Hg (27.97 "Hg at 656m altitude)

Humidity: 29%

Dew Point: 30 °F

Location of OntarioLocation

Past Weather in Ontario — Graph

°F

Ontario Temperature Yesterday

Maximum temperature yesterday: 63 °F (at 5:53 pm)
Minimum temperature yesterday: 27 °F (at 7:53 am)
Average temperature yesterday: 44 °F

High & Low Weather Summary for the Past Weeks

 TemperatureHumidityPressure
High64 °F (Mar 18, 4:53 pm)93% (Mar 7, 1:53 am)30.54 "Hg (Mar 7, 1:53 am)
Low22 °F (Mar 11, 7:53 am)22% (Mar 14, 4:53 pm)29.62 "Hg (Mar 6, 4:53 pm)
Average40 °F60%30.13 "Hg
* Reported Mar 3 4:53 pm — Mar 18 5:53 pm, Ontario. Weather by CustomWeather, © 2019

Note: Actual official high and low records may vary slightly from our data, if they occured in-between our weather recording intervals... More about our weather records

Advertising

Ontario Weather History for the Previous 24 Hours

Scroll right to see more
 ConditionsComfort  
Time TempWeatherWind HumidityBarometerVisibility
5:53 pm
Mon, Mar 18
64 °FSunny.No wind26%30.22 "Hg10 mi
4:53 pm64 °FSunny.3 mph27%30.23 "Hg10 mi
3:53 pm61 °FSunny.No wind30%30.24 "Hg10 mi
2:53 pm61 °FSunny.5 mph31%30.26 "Hg10 mi
1:53 pm58 °FSunny.No wind36%30.28 "Hg10 mi
12:53 pm56 °FSunny.7 mph39%30.29 "Hg10 mi
11:53 am50 °FSunny.No wind48%30.32 "Hg10 mi
10:53 am46 °FSunny.No wind54%30.33 "Hg10 mi
9:53 am39 °FSunny.3 mph70%30.33 "Hg10 mi
8:53 am31 °FClear.No wind79%30.32 "Hg10 mi
7:53 am27 °FClear.No wind81%30.30 "Hg10 mi
6:53 am30 °FClear.No wind79%30.29 "Hg10 mi
5:53 am29 °FClear.No wind79%30.27 "Hg10 mi
4:53 am32 °FClear.3 mph75%30.27 "Hg10 mi
3:53 am32 °FClear.No wind75%30.27 "Hg10 mi
2:53 am34 °FClear.7 mph70%30.27 "Hg10 mi
1:53 am35 °FClear.8 mph70%30.27 "Hg10 mi
12:53 am37 °FClear.6 mph67%30.28 "Hg10 mi
11:53 pm
Sun, Mar 17
37 °FClear.6 mph65%30.28 "Hg10 mi
10:53 pm40 °FClear.5 mph58%30.28 "Hg10 mi
9:53 pm47 °FClear.5 mph48%30.27 "Hg10 mi
8:53 pm49 °FSunny.3 mph39%30.27 "Hg10 mi
7:53 pm59 °FSunny.No wind28%30.27 "Hg10 mi
Weather by CustomWeather, © 2019

See weather overview